Location: Burland Observatory
(39.4088°N, 105.4217°W)
Time: 09:07:44
(UTC-07:00)

SR - Pass Details

Date: 13 December 2019
Orbit: 574 x 882 km, 66.7° (Epoch: 26 January)

Event Time Altitude Azimuth Distance (km) Brightness Sun altitude
Rises 17:29:39 0° 332° (NNW) 3,473 ? -9.7°
Reaches altitude 10° 17:32:13 10° 335° (NNW) 2,514 ? -10.2°
Maximum altitude 17:38:04 73° 60° (ENE) 873 ? -11.2°
Drops below altitude 10° 17:43:31 10° 145° (SE) 2,350 ? -12.2°
Sets 17:45:50 0° 147° (SSE) 3,230 ? -12.6°
